Location: Seven Kings
(51.5667°N, 0.1000°E)
Time: 03:15:10
(UTC+00:00)

S3M - Pass Details

Date: 29 October 2020
Orbit: 950 x 1003 km, 83.0° (Epoch: 27 November)

Event Time Altitude Azimuth Distance (km) Brightness Sun altitude
Rises 18:59:27 0° 197° (SSW) 3,614 7.1 -22.6°
Reaches altitude 10° 19:01:56 10° 200° (SSW) 2,675 6.4 -22.9°
Maximum altitude 19:08:01 67° 283° (WNW) 1,039 4.3 -23.9°
Drops below altitude 10° 19:14:13 10° 6° (N) 2,720 6.4 -24.8°
Sets 19:16:47 0° 9° (N) 3,679 7.0 -25.2°
